Weather History for La Ceiba, Honduras

Change the Weather History Date:

Sunday, May 4, 2014

  Actual Average Record
Temperature  
Mean Temperature 80 °F -  
Max Temperature 87 °F 86 °F 89 °F (1998)
Min Temperature 73 °F 71 °F 66 °F (2013)
Cooling Degree Days 15    
Growing Degree Days 30 (Base 50)    
Moisture  
Dew Point 72 °F    
Average Humidity 82    
Maximum Humidity 95    
Minimum Humidity 51    
Precipitation  
Precipitation 0.75 in 0.11 in - ()
Sea Level Pressure  
Sea Level Pressure 29.98 in    
Wind  
Wind Speed 4 mph ()    
Max Wind Speed 13 mph    
Max Gust Speed -    
Visibility 5.1 miles    
Events Rain    
Averages and records for this station are not official NWS values.
T = Trace of Precipitation, MM = Missing Value Source: Averaged Metar Reports

Daily Weather History Graph

Daily Weather History Graph

Search for Another Location

Airport:

Trip Planner

Search our weather history database for the weather conditions in past years. The results will help you decide how hot, cold, wet, or windy it might be!

Date:

Astronomy

May. 04, 2014 Rise Set
Actual Time 5:21 AM CST 6:06 PM CST
Civil Twilight 4:59 AM CST 6:29 PM CST
Nautical Twilight 4:32 AM CST 6:55 PM CST
Astronomical Twilight 4:06 AM CST 7:22 PM CST
Moon 9:49 AM CST (5/4) 10:51 PM CST (5/4)
Length of Visible Light 13h 29m
Length of Day
12h 44m
Waxing Crescent, 28% of the Moon is Illuminated
May 4
Waxing Crescent
May 6
First Quarter
May 14
Full
May 21
Last Quarter
May 28
New

Hourly Weather History & Observations

Time (CST) Temp. Heat Index Dew Point Humidity Pressure Visibility Wind Dir Wind Speed Gust Speed Precip Events Conditions
12:00 AM 75.2 °F - 73.4 °F 94% 29.95 in 6.2 mi East 3.5 mph - N/A   Scattered Clouds
1:00 AM 75.2 °F - 73.4 °F 94% 29.98 in 6.2 mi Calm Calm - N/A   Partly Cloudy
2:00 AM 73.4 °F - 71.6 °F 94% 29.95 in 6.2 mi Calm Calm - N/A   Scattered Clouds
3:00 AM 73 °F - 72 °F 95% 29.93 in 6 mi East 3.5 mph - -   Haze
3:00 AM 73.4 °F - 71.6 °F 94% 29.92 in 6.2 mi East 3.5 mph - N/A   Partly Cloudy
4:00 AM 73.4 °F - 71.6 °F 94% 29.92 in 6.2 mi East 3.5 mph - N/A   Partly Cloudy
6:00 AM -70 °F - - %  in - 6.9 mph - -  
9:00 AM 83 °F - 74 °F 69% 30.03 in 7 mi West 3.5 mph - -   Haze
9:00 AM 82.4 °F 89.5 °F 75.2 °F 79% 30.01 in 6.2 mi West 3.5 mph - N/A   Mostly Cloudy
10:00 AM 84.2 °F 90.9 °F 73.4 °F 70% 30.01 in 6.2 mi WNW 4.6 mph - N/A   Mostly Cloudy
11:00 AM 87.8 °F 97.6 °F 75.2 °F 66% 30.01 in 6.2 mi NW 5.8 mph - N/A   Scattered Clouds
12:00 PM 86 °F - 73 °F 57% 29.99 in 9 mi NNW 8.1 mph - -   Haze
12:00 PM 86.0 °F 93.4 °F 73.4 °F 66% 29.98 in 6.2 mi NNW 8.1 mph - N/A   Scattered Clouds
1:00 PM 86.0 °F 93.4 °F 73.4 °F 66% 29.98 in 6.2 mi NNW 9.2 mph - N/A   Scattered Clouds
2:00 PM 86.0 °F 93.4 °F 73.4 °F 66% 29.95 in 6.2 mi NW 6.9 mph - N/A   Mostly Cloudy
3:00 PM 88 °F - 72 °F 51% 29.96 in 8 mi NNW 6.9 mph - -   Haze
3:00 PM 87.8 °F 93.8 °F 71.6 °F 58% 29.95 in 6.2 mi NNW 6.9 mph - N/A   Mostly Cloudy
4:00 PM 80.6 °F 85.4 °F 73.4 °F 79% 29.95 in 6.2 mi SSW 8.1 mph - N/A   Mostly Cloudy
5:00 PM 77.0 °F - 71.6 °F 83% 29.95 in 4.3 mi SSW 9.2 mph - N/A   Mostly Cloudy
5:26 PM 73.4 °F - 71.6 °F 94% 29.98 in 0.6 mi South 8.1 mph - N/A Rain Heavy Rain
6:00 PM 74 °F - 72 °F 91% 29.98 in 1 mi South 11.5 mph - - Rain Rain
6:00 PM 75.2 °F - 71.6 °F 89% 29.98 in 0.6 mi South 11.5 mph - N/A Rain Heavy Rain
7:00 PM 73.4 °F - 71.6 °F 94% 30.01 in 1.2 mi South 12.7 mph - N/A Rain Light Rain
8:00 PM 73.4 °F - 71.6 °F 94% 30.01 in 1.9 mi SSW 6.9 mph - N/A Rain Light Rain
9:00 PM 74 °F - 71 °F 89% 30.02 in 6 mi Calm Calm - - Rain Light Rain
9:00 PM 73.4 °F - 71.6 °F 94% 30.01 in 5.0 mi Calm Calm - N/A Rain Light Rain
10:00 PM 73.4 °F - 71.6 °F 94% 30.04 in 1.9 mi SSE 4.6 mph - N/A Rain Rain
11:00 PM 75.2 °F - 71.6 °F 89% 30.01 in 5.0 mi South 5.8 mph - N/A Rain Light Rain